STARLINK-11514 [DTC] (62514 NORAD) Tracking and Keplerian Element Data

This shows tracking and keplerian element data for the satellite.

Feedback or suggestion? Click here.




ElementValue
Catalog62514
NameSTARLINK-11514 [DTC]
Epoch Orbit435
Epoch Day34.12207811
Epoch Year2025
RAAN320.3973
Inclination42.9974
Eccentricity0.0001241
Argument of Perigee266.8803
Mean Anonmoly93.1925
Mean Motion15.77855573
Decay Rate2.529E-05
L11 62514U 25004D 25034.12207811 .00002529 00000+0 17389-4 0 9994
L22 62514 42.9974 320.3973 0001241 266.8803 93.1925 15.77855573 4357



Live tracking and technical data element details for STARLINK-11514 [DTC] (NORAD 62514). STARLINK-11514 [DTC] can be tracked NOW for your location showing map with azimuth and elevation plus other details from your city location.







IsCatalogInMostPopularTable: catalog: 62514, numindb: 12
Update: records affected: 1



GetName: 62514 STARLINK-11514 [DTC]

Hit Count: updated at: Sat, 24 May 2025 17:21:39 GMT